Location: Newark
(39.6867°N, 100.6772°W)
Time: 13:15:41
(UTC+00:00)

Vanguard 1 Rocket - Pass Details

Date: 23 October 2019
Orbit: 651 x 4225 km, 34.3° (Epoch: 13 November)

Event Time Altitude Azimuth Distance (km) Brightness Sun altitude
Rises 00:59:03 0° 282° (WNW) 8,286 13.9 -13.2°
Reaches altitude 10° 01:07:52 10° 268° (W) 7,426 13.4 -14.9°
Maximum altitude 01:21:52 18° 234° (SW) 6,500 12.4 -17.6°
Drops below altitude 10° 01:34:25 10° 200° (SSW) 6,463 11.9 -20.1°
Sets 01:41:24 0° 182° (S) 6,868 11.9 -21.4°
